Content
SEND FEEDBACK

Daily
Averages
Monthly
Summary
Germany

LUBECK, GERMANY


Home > Europe > Germany
Elevation: 56 feet     Latitude: 54 00N     Longitude: 011 12E

WEATHER
 
SELECT A DAY
Number of Records: 66,507;   Date Range: 7/3/96 - 12/17/14
 
SHARE

PRINT THIS DATA

[ ← Previous Day ]
WEATHER ALMANAC - JULY 20, 2014
[ Next Day → ]
[ °C ]   °F
Weather ElementAverageHighLow
Temperature75.4 °F85 °F (3:00 pm)60 °F (12:00 am)
Dewpoint62.8 °F68 °F (3:20 pm)53 °F (2:00 am)
Humidity62 %88 % (1:00 am)40 % (1:00 pm)
Barometer29.88 in29.98 in (6:20 pm)29.83 in (12:20 pm)
Wind Speed9.8 mph15 mph (8:50 am)
Weather ElementAverage
Visibility11.6 mi
Wind DirectionENE (53.6 °)

Weather ElementTotal
Precipitation---
Cooling Degree Days7.5 (Base 65)
Growing Degree Days22.5 (Base 50)
Averaged from 55 records on July 20, 2014
WEATHER CONDITIONS BREAKOUT
WIND DIRECTION BREAKOUT
WEATHER BY HOUR - JULY 20, 2014
[ °C ]   °F
Local TimeTemperatureDewpointHumidityBarometerVisibilityWind DirectionWind SpeedGust SpeedPrecipitationEventsConditions
12:00 AM67.0 °F54.0 °F54 %29.97 in19.0 miEast (80°)6.7 mph
1:00 AM64.0 °F53.0 °F59 %29.98 in18.0 miEast (80°)6.7 mph
2:00 AM62.0 °F53.0 °F63 %29.97 in19.0 miEast (80°)4.5 mph
3:00 AM63.0 °F55.0 °F67 %29.96 in17.0 miENE (60°)4.5 mph
4:00 AM62.0 °F55.0 °F73 %29.95 in15.0 miENE (60°)4.5 mph
5:00 AM60.0 °F56.0 °F81 %29.94 in14.0 miENE (60°)4.5 mph
6:00 AM62.0 °F57.0 °F77 %29.93 in14.0 miENE (60°)2.2 mph
6:50 AM64.4 °F60.8 °F88 %29.92 inENE (60°)5.8 mphClear
7:00 AM65.0 °F59.0 °F76 %29.92 in11.0 miNE (50°)6.7 mph
7:20 AM66.2 °F60.8 °F83 %29.92 inENE (60°)8.1 mphClear
7:50 AM68.0 °F60.8 °F78 %29.92 inENE (60°)8.1 mphClear
8:00 AM68.0 °F61.0 °F71 %29.91 in10.0 miNE (50°)8.9 mph
8:20 AM71.6 °F62.6 °F73 %29.89 inENE (70°)10.4 mphClear
8:50 AM71.6 °F60.8 °F69 %29.89 inEast (80°)11.5 mphClear
9:00 AM72.0 °F61.0 °F59 %29.90 in12.0 miENE (70°)11.2 mph
9:20 AM73.4 °F62.6 °F69 %29.89 inEast (80°)10.4 mphClear
9:50 AM75.2 °F60.8 °F61 %29.89 inEast (80°)11.5 mphClear
10:00 AM76.0 °F60.0 °F49 %29.91 in7.0 miENE (70°)11.2 mph
10:20 AM77.0 °F60.8 °F57 %29.89 inEast (80°)10.4 mphClear
10:50 AM77.0 °F62.6 °F61 %29.89 inENE (60°)10.4 mphClear
11:00 AM77.0 °F62.0 °F50 %29.90 in13.0 miNE (50°)11.2 mphN Precipitation
11:20 AM77.0 °F64.4 °F65 %29.89 inNE (50°)10.4 mphClear
11:50 AM77.0 °F64.4 °F65 %29.89 inNE (50°)10.4 mphClear
12:00 PM76.0 °F63.0 °F56 %29.90 in16.0 miNE (40°)11.2 mph
12:20 PM77.0 °F66.2 °F69 %29.89 inNE (50°)11.5 mphClear
12:50 PM80.6 °F68.0 °F65 %29.86 inNE (40°)11.5 mphClear
1:00 PM80.0 °F66.0 °F53 %29.88 in5.0 miNE (40°)11.2 mph
1:20 PM80.6 °F66.2 °F61 %29.86 inNE (40°)11.5 mphClear
1:50 PM84.2 °F66.2 °F55 %29.86 inENE (70°)10.4 mphClear
2:00 PM83.0 °F66.0 °F46 %29.86 in4.0 miENE (60°)11.2 mphLight Haze
2:20 PM84.2 °F66.2 °F55 %29.86 inENE (60°)11.5 mphClear
2:50 PM84.2 °F64.4 °F51 %29.83 inNE (50°)11.5 mphClear
3:00 PM85.0 °F64.0 °F40 %29.85 in5.0 miNE (40°)11.2 mph
3:20 PM84.2 °F68.0 °F58 %29.83 inNE (40°)11.5 mphClear
3:50 PM84.2 °F66.2 °F55 %29.83 inNNE (30°)13.8 mphClear
4:00 PM83.0 °F65.0 °F45 %29.85 in5.0 miNNE (20°)13.4 mph
4:20 PM82.4 °F68.0 °F62 %29.83 inNE (40°)11.5 mphClear
4:50 PM82.4 °F66.2 °F58 %29.83 inNE (40°)13.8 mphClear
5:00 PM83.0 °F65.0 °F45 %29.85 in4.0 miNE (40°)13.4 mphLight Haze
5:20 PM82.4 °F66.2 °F58 %29.83 inNE (50°)15.0 mphClear
5:50 PM78.8 °F66.2 °F65 %29.83 inNNE (30°)12.7 mphClear
6:00 PM80.0 °F65.0 °F50 %29.84 in7.0 miNNE (30°)13.4 mph
6:20 PM78.8 °F66.2 °F65 %29.83 inNE (40°)12.7 mphClear
6:50 PM78.8 °F66.2 °F65 %29.83 inNE (40°)10.4 mphClear
7:00 PM79.0 °F65.0 °F53 %29.83 in10.0 miNNE (30°)11.2 mph
7:20 PM78.8 °F66.2 °F65 %29.83 inNE (50°)10.4 mphClear
7:50 PM77.0 °F66.2 °F69 %29.83 inNE (50°)8.1 mphClear
8:00 PM77.0 °F64.0 °F57 %29.83 in12.0 miNE (40°)6.7 mphOvercast
8:20 PM77.0 °F64.4 °F65 %29.83 inNE (50°)8.1 mphClear
8:50 PM75.2 °F64.4 °F69 %29.83 inNE (50°)8.1 mphClear
9:00 PM76.0 °F63.0 °F55 %29.85 in16.0 miNE (40°)8.9 mphN Precipitation
9:20 PM75.2 °F62.6 °F65 %29.86 inENE (60°)9.2 mphClear
9:50 PM73.4 °F62.6 °F69 %29.86 inENE (60°)8.1 mphClear
10:00 PM74.0 °F63.0 °F59 %29.87 in14.0 miENE (60°)6.7 mphOvercast
11:00 PM73.0 °F62.0 °F59 %29.87 in12.0 miENE (70°)11.2 mphN Precipitation
Hourly data recorded from EDHL, located miles away from Lubeck, Germany







STORIES FROM OUR PARTNERS